This is the latest recevied weather packets stored in our database for station/object YU7OR-2. If no packets are shown the sender has not sent any weather packets the latest 10 day(s).
| Time | Temp. | Humidity | Pressure | Rain* | Wind** | Luminosity | Snow |
|---|---|---|---|---|---|---|---|
| 1778090259 | 23.33° C | 44% | 1007.4 hPa | 0 mm | - | - | - |
| 1778090019 | 23.33° C | 45% | 1007.2 hPa | 0 mm | - | - | - |
| 1778089749 | 23.33° C | 44% | 1007.4 hPa | 0 mm | - | - | - |
| 1778089189 | 23.89° C | 45% | 1007.4 hPa | 0 mm | - | - | - |
| 1778088929 | 24.44° C | 45% | 1007.3 hPa | 0 mm | - | - | - |
| 1778088414 | 24.44° C | 45% | 1007.3 hPa | 0 mm | - | - | - |
| 1778087300 | 25.56° C | 44% | 1007.5 hPa | 0 mm | - | - | - |
| 1778086744 | 25.56° C | 43% | 1007.5 hPa | 0 mm | - | - | - |
| 1778085354 | 26.67° C | 43% | 1007.5 hPa | 0 mm | - | - | - |
| 1778085074 | 26.67° C | 43% | 1007.5 hPa | 0 mm | - | - | - |
| 1778084789 | 26.67° C | 43% | 1007.7 hPa | 0 mm | - | - | - |
| 1778084524 | 26.67° C | 43% | 1007.7 hPa | 0 mm | - | - | - |
| 1778084269 | 27.22° C | 43% | 1007.6 hPa | 0 mm | - | - | - |
| 1778082419 | 26.67° C | 43% | 1008.1 hPa | 0 mm | - | - | - |
| 1778081882 | 26.67° C | 43% | 1008 hPa | 0 mm | - | - | - |
| 1778080839 | 27.78° C | 43% | 1008.3 hPa | 0 mm | - | - | - |
| 1778078179 | 27.22° C | 43% | 1008.5 hPa | 0 mm | - | - | - |
| 1778077884 | 27.22° C | 43% | 1008.5 hPa | 0 mm | - | - | - |
| 1778077374 | 27.22° C | 43% | 1008.5 hPa | 0 mm | - | - | - |
| 1778076879 | 27.22° C | 43% | 1008.7 hPa | 0 mm | - | - | - |
| 1778076624 | 26.67° C | 44% | 1008.7 hPa | 0 mm | - | - | - |
| 1778074724 | 26.67° C | 43% | 1008.9 hPa | 0 mm | - | - | - |
| 1778074474 | 26.67° C | 43% | 1009 hPa | 0 mm | - | - | - |
| 1778074179 | 26.67° C | 43% | 1009.1 hPa | 0 mm | - | - | - |
| 1778073909 | 26.67° C | 43% | 1009.1 hPa | 0 mm | - | - | - |
* Rain latest hour (hover to see other rain measurements)
** Current wind speed in m/s (hover to see current wind gust speed)